CW5834 Weather Reports


Display with metric or nautical units.
time (UTC)temp
F
wind
direction
speed
MPH
gust
MPH
rain 1hr
in
rain 24hr
in
rain mn
in
humidity
%
barometer
mb
20190120235521 20 323 4.0 7.0 0.00 0.20 0.00 64 1022.8
20190120234521 21 254 2.0 7.0 0.00 0.21 0.00 64 1022.1
20190120233521 21 287 3.0 9.0 0.00 0.23 0.00 63 1022.4
20190120232521 21 305 2.0 7.0 0.00 0.27 0.00 63 1022.1
20190120231515 21 331 2.0 6.0 0.00 0.31 0.00 64 1021.7
20190120230521 21 331 1.0 3.0 0.00 0.33 0.00 64 1021.3
20190120225521 21 331 2.0 5.0 0.00 0.49 0.00 63 1021.2
20190120224520 21 337 2.0 8.0 0.00 0.60 0.00 63 1021.1
20190120223520 22 302 3.0 10.0 0.00 0.66 0.00 62 1021.0
20190120222520 22 294 2.0 8.0 0.00 0.71 0.00 61 1021.2
20190120221520 22 303 3.0 7.0 0.00 0.77 0.00 62 1021.1
20190120220523 22 329 4.0 10.0 0.00 0.81 0.00 62 1020.8
20190120215523 23 311 6.0 10.0 0.00 0.85 0.00 61 1020.6
20190120214522 23 312 5.0 14.0 0.00 0.89 0.00 60 1020.7
20190120213520 25 245 5.0 14.0 0.00 0.92 0.00 58 1020.6
20190120212522 25 277 3.0 8.0 0.00 0.93 0.00 62 1020.4
20190120211517 25 259 4.0 11.0 0.00 0.94 0.00 63 1020.3
20190120210523 24 283 7.0 13.0 0.00 0.97 0.00 63 1020.1
20190120205522 25 331 6.0 14.0 0.00 0.99 0.00 60 1019.9
20190120204523 25 312 6.0 14.0 0.00 1.00 0.00 59 1019.7
20190120203522 26 292 3.0 12.0 0.00 1.02 0.00 61 1019.5
20190120202523 26 287 5.0 12.0 0.00 1.06 0.00 60 1019.2
20190120201522 26 324 4.0 14.0 0.00 1.06 0.00 60 1019.1
20190120200517 26 274 3.0 9.0 0.00 1.06 0.00 64 1019.0
20190120195523 25 350 5.0 11.0 0.00 1.07 0.00 64 1018.8
20190120194522 26 259 5.0 11.0 0.00 1.08 0.00 68 1018.8
20190120193522 26 273 5.0 13.0 0.00 1.10 0.00 68 1018.6
20190120192522 25 303 4.0 11.0 0.00 1.11 0.00 67 1018.5
20190120191522 25 304 6.0 13.0 0.00 1.12 0.00 66 1018.4
20190120190517 25 297 4.0 9.0 0.00 1.15 0.00 69 1018.4
20190120185517 25 294 4.0 14.0 0.00 1.16 0.00 68 1018.2
20190120184522 25 284 5.0 14.0 0.00 1.16 0.00 70 1018.1
20190120183522 23 264 6.0 13.0 0.00 1.17 0.00 72 1018.1
20190120182522 23 260 6.0 13.0 0.00 1.18 0.00 72 1018.0
20190120181522 23 274 4.0 11.0 0.00 1.19 0.00 75 1018.1
20190120180522 23 286 5.0 18.0 0.00 1.20 0.00 73 1018.3
20190120175517 23 237 3.0 8.0 0.00 1.21 0.00 75 1018.3
20190120174517 23 261 2.0 9.0 0.00 1.22 0.00 76 1018.4
20190120173522 23 306 3.0 10.0 0.00 1.25 0.00 77 1018.4
20190120172522 24 292 3.0 12.0 0.00 1.28 0.00 77 1018.2
20190120171522 24 307 5.0 10.0 0.00 1.31 0.00 77 1018.2
20190120170522 24 302 3.0 15.0 0.00 1.37 0.00 77 1018.3
20190120165522 24 276 4.0 11.0 0.00 1.40 0.00 76 1018.3
20190120164517 24 285 4.0 9.0 0.00 1.40 0.00 78 1018.2
20190120163518 24 292 4.0 8.0 0.00 1.40 0.00 78 1018.0
20190120162522 24 230 1.0 10.0 0.00 1.42 0.00 78 1017.9
20190120161522 24 290 2.0 8.0 0.00 1.45 0.00 79 1018.1
20190120160522 24 304 5.0 12.0 0.00 1.47 0.00 79 1017.8
20190120155522 24 308 7.0 12.0 0.00 1.48 0.00 79 1017.5
20190120154522 24 313 6.0 13.0 0.00 1.50 0.00 79 1017.3
20190120153517 24 313 6.0 13.0 0.00 1.50 0.00 79 1017.2
20190120152517 25 308 4.0 11.0 0.00 1.50 0.00 78 1017.0
20190120151522 25 294 3.0 7.0 0.00 1.52 0.00 79 1016.8
20190120150522 24 316 3.0 7.0 0.00 1.53 0.00 81 1016.7
20190120145522 24 347 3.0 11.0 0.00 1.53 0.00 80 1016.5
20190120144522 24 284 3.0 8.0 0.00 1.53 0.00 81 1016.2
20190120143522 24 311 5.0 10.0 0.00 1.53 0.00 81 1016.1
20190120142517 24 299 4.0 11.0 0.00 1.53 0.00 81 1015.9
20190120141522 24 310 5.0 13.0 0.00 1.53 0.00 81 1015.7
20190120140522 24 287 3.0 8.0 0.00 1.53 0.00 80 1015.6
20190120135522 24 318 6.0 11.0 0.00 1.53 0.00 79 1015.3
20190120134521 24 321 4.0 9.0 0.00 1.53 0.00 78 1015.0
20190120133522 24 316 6.0 15.0 0.00 1.53 0.00 77 1014.9
20190120132522 25 17 4.0 11.0 0.00 1.53 0.00 76 1014.6
20190120131517 25 288 5.0 13.0 0.00 1.53 0.00 76 1014.4
20190120130522 25 300 6.0 13.0 0.00 1.53 0.00 75 1014.3
20190120125522 25 319 5.0 17.0 0.00 1.53 0.00 74 1014.0
20190120124522 25 316 3.0 19.0 0.00 1.53 0.00 76 1013.9
20190120123521 25 295 7.0 16.0 0.00 1.53 0.00 76 1013.8
20190120122519 25 325 6.0 17.0 0.00 1.53 0.00 77 1013.5
20190120121521 26 301 6.0 12.0 0.00 1.53 0.00 78 1013.0
20190120120516 26 314 5.0 22.0 0.00 1.53 0.00 76 1012.6
20190120115522 26 306 3.0 14.0 0.00 1.53 0.00 76 1011.8
20190120114521 26 294 8.0 14.0 0.00 1.53 0.00 76 1011.6
20190120113522 27 306 7.0 15.0 0.00 1.53 0.00 77 1011.1
20190120112521 27 297 6.0 16.0 0.00 1.53 0.00 78 1010.8
20190120111521 27 310 5.0 18.0 0.00 1.53 0.00 79 1010.4
20190120110521 28 321 3.0 13.0 0.00 1.53 0.00 78 1009.9
20190120105517 28 281 4.0 13.0 0.00 1.53 0.00 80 1009.4
20190120104521 28 261 4.0 18.0 0.00 1.53 0.00 80 1009.1
20190120103521 29 279 6.0 18.0 0.00 1.53 0.00 80 1008.7
20190120102521 30 273 6.0 15.0 0.00 1.53 0.00 80 1008.6
20190120101521 30 274 7.0 14.0 0.00 1.53 0.00 80 1008.2
20190120100522 31 269 5.0 15.0 0.00 1.53 0.00 81 1007.9
20190120095521 32 287 5.0 11.0 0.00 1.53 0.00 80 1007.5
20190120094516 32 276 6.0 13.0 0.00 1.53 0.00 79 1007.3
20190120093521 33 326 3.0 10.0 0.00 1.53 0.00 82 1007.0
20190120092521 33 257 5.0 14.0 0.00 1.53 0.00 83 1006.8
20190120091521 33 259 5.0 14.0 0.00 1.53 0.00 83 1006.6
20190120090521 34 277 5.0 16.0 0.00 1.53 0.00 84 1006.5
20190120085521 35 280 6.0 14.0 0.00 1.53 0.00 81 1006.2
20190120084516 36 287 5.0 15.0 0.00 1.53 0.00 79 1005.9
20190120083516 36 272 5.0 15.0 0.00 1.53 0.00 79 1005.5
20190120082521 36 298 4.0 16.0 0.00 1.53 0.00 82 1005.4
20190120081521 37 298 4.0 14.0 0.00 1.53 0.00 82 1005.1
20190120080521 37 278 5.0 16.0 0.00 1.53 0.00 81 1005.0
20190120075521 38 287 7.0 23.0 0.00 1.53 0.00 79 1004.5
20190120074521 39 257 4.0 17.0 0.00 1.53 0.00 83 1004.2
20190120073516 40 267 6.0 16.0 0.00 1.53 0.00 83 1003.8
20190120072516 41 269 4.0 14.0 0.00 1.53 0.00 82 1003.6
20190120071521 41 269 3.0 11.0 0.00 1.53 0.00 82 1003.4
20190120070521 42 252 5.0 14.0 0.00 1.53 0.00 82 1002.9
20190120065521 43 267 4.0 15.0 0.00 1.53 0.00 81 1002.9
20190120064520 43 255 4.0 14.0 0.00 1.53 0.00 82 1002.6
20190120063522 44 233 5.0 18.0 0.00 1.53 0.00 80 1002.2
20190120062516 44 239 5.0 17.0 0.00 1.53 0.00 81 1002.0
20190120061521 45 255 4.0 16.0 0.00 1.53 0.00 80 1001.9
20190120060521 47 258 6.0 18.0 0.00 1.53 0.00 80 1001.6
20190120055521 48 270 4.0 16.0 0.00 1.53 0.00 83 1001.3
20190120054521 49 259 4.0 13.0 0.00 1.53 0.00 81 1001.1
20190120053521 50 267 3.0 15.0 0.00 1.53 0.00 82 1000.7
20190120052521 52 227 6.0 18.0 0.00 1.53 0.00 85 1000.3
20190120051516 52 222 5.0 12.0 0.00 1.53 0.00 87 1000.0
20190120050521 52 213 5.0 10.0 0.00 1.53 0.00 88 999.9
20190120045522 53 209 8.0 14.0 0.00 1.53 1.36 87 999.7
20190120044521 53 216 8.0 16.0 0.00 1.53 1.36 89 999.9
20190120043521 53 211 7.0 15.0 0.00 1.53 1.36 89 999.7
20190120042521 53 215 8.0 19.0 0.00 1.53 1.36 89 999.6
20190120041521 54 210 8.0 17.0 0.00 1.53 1.36 88 999.4
20190120040521 54 213 9.0 19.0 0.00 1.53 1.36 89 999.3
20190120035516 54 217 6.0 17.0 0.00 1.53 1.36 89 999.2
20190120034521 54 212 7.0 14.0 0.00 1.53 1.36 88 999.4
20190120033522 54 216 7.0 12.0 0.00 1.53 1.36 88 999.2
20190120032521 54 209 6.0 13.0 0.00 1.53 1.36 88 999.3
20190120031521 54 198 5.0 12.0 0.00 1.53 1.36 88 999.5
20190120030521 54 204 5.0 12.0 0.01 1.53 1.36 88 999.5
20190120025516 55 204 6.0 16.0 0.01 1.53 1.36 88 999.8
20190120024516 54 178 4.0 9.0 0.02 1.53 1.36 89 999.8
20190120023521 54 190 3.0 12.0 0.05 1.53 1.36 89 999.7
20190120022522 54 182 6.0 13.0 0.05 1.53 1.36 90 1000.1
20190120021521 54 198 4.0 14.0 0.06 1.53 1.36 89 1000.0
20190120020519 54 208 5.0 12.0 0.05 1.52 1.35 90 1000.5
20190120015521 54 195 6.0 13.0 0.06 1.52 1.35 90 1000.4
20190120014516 54 207 5.0 11.0 0.06 1.51 1.34 91 1000.7
20190120013521 54 172 5.0 13.0 0.05 1.47 1.31 90 1000.5
20190120012521 54 155 6.0 13.0 0.06 1.47 1.31 89 1000.2
20190120011521 54 154 6.0 18.0 0.06 1.46 1.30 89 1000.2
20190120010521 54 145 8.0 19.0 0.09 1.46 1.30 90 1000.4
20190120005521 53 153 6.0 18.0 0.12 1.45 1.29 90 1000.6
20190120004521 54 131 8.0 18.0 0.12 1.44 1.28 90 1000.1
20190120003516 54 134 8.0 21.0 0.12 1.42 1.26 90 1000.4
20190120002521 54 140 6.0 16.0 0.14 1.40 1.25 91 1000.7
20190120001521 53 141 7.0 21.0 0.18 1.39 1.24 93 1000.5
20190120000521 52 174 0.0 4.0 0.18 1.37 1.22 94 1001.4